Gadsden, AL

5:12 PM CDT on July 15, 2019 (GMT -0500)
Gadsden Municipal

Weather History for KGAD - May, 2019

Change the Weather History Date:

Tuesday, May 28, 2019

  Actual Average Record
Temperature  
Mean Temperature 77 °F -  
Max Temperature 91 °F 79 °F 98 °F (1941)
Min Temperature 64 °F 58 °F 49 °F (1951)
Cooling Degree Days 12    
Growing Degree Days 27 (Base 50)    
Moisture  
Dew Point 70 °F    
Average Humidity 79    
Maximum Humidity 100    
Minimum Humidity 48    
Precipitation  
Precipitation 0.00 in - - ()
Sea Level Pressure  
Sea Level Pressure 29.95 in    
Wind  
Wind Speed 1 mph ()    
Max Wind Speed 9 mph    
Max Gust Speed -    
Visibility 9.2 miles    
Events      
Averages and records for this station are not official NWS values.
T = Trace of Precipitation, MM = Missing Value Source: Averaged Metar Reports

Daily Weather History Graph

Daily Weather History Graph

Search for Another Location

Airport or City:

Astronomy

May. 28, 2019 Rise Set
Actual Time 5:35 AM CDT 7:47 PM CDT
Civil Twilight 5:07 AM CDT 8:16 PM CDT
Nautical Twilight 4:32 AM CDT 8:51 PM CDT
Astronomical Twilight 3:54 AM CDT 9:28 PM CDT
Moon 2:26 AM CDT (5/28) 2:16 PM CDT (5/28)
Length of Visible Light 15h 09m
Length of Day
14h 12m
Waning Crescent, 31% of the Moon is Illuminated
May 28
Waning Crescent
Jun 3
New
Jun 10
First Quarter
Jun 17
Full
Jun 25
Last Quarter

Hourly Weather History & Observations

Time (CDT) Temp. Heat Index Dew Point Humidity Pressure Visibility Wind Dir Wind Speed Gust Speed Precip Events Conditions
12:56 AM 69.1 °F - 69.1 °F 100% 29.96 in 10.0 mi Calm Calm - N/A   Clear
1:56 AM 68.0 °F - 68.0 °F 100% 29.96 in 10.0 mi Calm Calm - N/A   Clear
2:56 AM 66.9 °F - 66.9 °F 100% 29.95 in 8.0 mi Calm Calm - N/A   Clear
3:56 AM 66.0 °F - - N/A% 29.96 in 7.0 mi Calm Calm - N/A   Clear
4:56 AM 64.9 °F - 64.9 °F 100% 29.97 in 8.0 mi Calm Calm - N/A   Clear
5:56 AM 64.0 °F - 64.0 °F 100% 29.99 in 2.5 mi Calm Calm - N/A   Clear
6:07 AM 64.4 °F - - N/A% 30.00 in 6.0 mi Calm Calm - N/A   Haze
6:56 AM 69.1 °F - 69.1 °F 100% 30.01 in 9.0 mi Calm Calm - N/A   Clear
7:56 AM 73.9 °F - 72.0 °F 93% 30.01 in 10.0 mi Calm Calm - N/A   Clear
8:56 AM 80.1 °F 83.8 °F 72.0 °F 76% 30.01 in 10.0 mi South 3.5 mph - N/A   Clear
9:56 AM 82.9 °F 89.4 °F 73.9 °F 74% 29.99 in 10.0 mi South 3.5 mph - N/A   Clear
10:56 AM 84.0 °F 89.6 °F 72.0 °F 67% 29.99 in 10.0 mi SSW 6.9 mph - N/A   Partly Cloudy
11:56 AM 88.0 °F 94.7 °F 72.0 °F 59% 29.98 in 10.0 mi South 6.9 mph - N/A   Partly Cloudy
12:56 PM 88.0 °F 93.8 °F 71.1 °F 57% 29.96 in 10.0 mi SSW 5.8 mph - N/A   Scattered Clouds
1:56 PM 90.0 °F 94.5 °F 69.1 °F 50% 29.95 in 10.0 mi SW 9.2 mph - N/A   Scattered Clouds
2:56 PM 90.0 °F 94.5 °F 69.1 °F 50% 29.93 in 10.0 mi SW 5.8 mph - N/A   Scattered Clouds
3:56 PM 89.1 °F 93.7 °F 69.1 °F 52% 29.91 in 10.0 mi Variable 3.5 mph - N/A   Mostly Cloudy
4:56 PM 89.1 °F 92.9 °F 68.0 °F 50% 29.91 in 10.0 mi SSW 4.6 mph - N/A   Partly Cloudy
5:56 PM 89.1 °F 92.1 °F 66.9 °F 48% 29.90 in 10.0 mi SW 5.8 mph - N/A   Partly Cloudy
6:56 PM 86.0 °F 90.7 °F 70.0 °F 59% 29.89 in 10.0 mi Calm Calm - N/A   Clear
7:56 PM 80.1 °F 84.5 °F 73.9 °F 81% 29.89 in 10.0 mi Calm Calm - N/A   Clear
8:56 PM 73.9 °F - 72.0 °F 93% 29.91 in 10.0 mi Calm Calm - N/A   Clear
9:56 PM 72.0 °F - 72.0 °F 100% 29.92 in 10.0 mi Calm Calm - N/A   Clear
10:56 PM 70.0 °F - 70.0 °F 100% 29.92 in 10.0 mi Calm Calm - N/A   Clear
11:56 PM 69.1 °F - 69.1 °F 100% 29.93 in 10.0 mi Calm Calm - N/A   Clear